TimeEST,TemperatureF,Dew PointF,Humidity,Sea Level PressureIn,VisibilityMPH,Wind Direction,Wind SpeedMPH,Gust SpeedMPH,PrecipitationIn,Events,Conditions,WindDirDegrees,DateUTC
12:35 AM,28.4,17.6,64,29.85,10.0,NW,10.4,26.5,N/A,,Overcast,320,2013-03-05 05:35:00
12:55 AM,28.4,17.6,64,29.86,10.0,NW,10.4,23.0,N/A,,Overcast,310,2013-03-05 05:55:00
1:15 AM,28.4,17.6,64,29.86,10.0,NNW,12.7,19.6,N/A,,Mostly Cloudy,330,2013-03-05 06:15:00
2:35 AM,28.4,17.6,64,29.87,10.0,NNW,8.1,16.1,N/A,,Clear,330,2013-03-05 07:35:00
4:35 AM,28.4,17.6,64,29.91,10.0,NNW,8.1,-,N/A,,Clear,330,2013-03-05 09:35:00
4:55 AM,28.4,17.6,64,29.91,10.0,NNW,8.1,-,N/A,,Clear,340,2013-03-05 09:55:00
5:15 AM,28.4,17.6,64,29.92,10.0,NNW,8.1,-,N/A,,Clear,340,2013-03-05 10:15:00
5:35 AM,28.4,17.6,64,29.92,10.0,NW,6.9,-,N/A,,Mostly Cloudy,320,2013-03-05 10:35:00
5:45 AM,28.4,17.6,64,29.92,10.0,NNW,6.9,-,N/A,,Scattered Clouds,340,2013-03-05 10:45:00
6:45 AM,28.4,17.6,64,29.94,10.0,North,13.8,-,N/A,,Partly Cloudy,350,2013-03-05 11:45:00
8:45 AM,32.0,21.2,64,29.97,10.0,North,9.2,20.7,N/A,,Partly Cloudy,350,2013-03-05 13:45:00
9:45 AM,35.6,21.2,56,29.97,10.0,North,13.8,-,N/A,,Partly Cloudy,360,2013-03-05 14:45:00
10:45 AM,35.6,21.2,56,29.97,10.0,North,15.0,-,N/A,,Partly Cloudy,10,2013-03-05 15:45:00
11:45 AM,37.4,23.0,56,29.97,10.0,North,11.5,18.4,N/A,,Clear,360,2013-03-05 16:45:00
12:45 PM,39.2,24.8,56,29.96,10.0,NNE,11.5,-,N/A,,Clear,20,2013-03-05 17:45:00
1:45 PM,41.0,24.8,53,29.96,10.0,North,11.5,-,N/A,,Clear,10,2013-03-05 18:45:00
2:45 PM,42.8,24.8,49,29.97,10.0,North,11.5,-,N/A,,Clear,10,2013-03-05 19:45:00
3:45 PM,42.8,24.8,49,29.97,10.0,North,8.1,-,N/A,,Partly Cloudy,350,2013-03-05 20:45:00
4:45 PM,44.6,24.8,46,29.98,10.0,NE,6.9,-,N/A,,Scattered Clouds,50,2013-03-05 21:45:00
5:55 PM,41.0,24.8,53,29.99,10.0,East,4.6,-,N/A,,Mostly Cloudy,80,2013-03-05 22:55:00
6:50 PM,41.0,24.8,53,30.01,10.0,Calm,Calm,-,N/A,,Mostly Cloudy,0,2013-03-05 23:50:00
7:45 PM,39.2,24.8,56,30.01,10.0,Calm,Calm,-,N/A,,Overcast,0,2013-03-06 00:45:00
8:45 PM,39.2,24.8,56,30.02,10.0,Calm,Calm,-,N/A,,Overcast,0,2013-03-06 01:45:00
9:35 PM,39.2,24.8,56,30.02,10.0,ENE,4.6,-,N/A,,Overcast,60,2013-03-06 02:35:00
9:55 PM,39.2,24.8,56,30.02,10.0,East,4.6,-,N/A,,Overcast,80,2013-03-06 02:55:00
10:15 PM,39.2,26.6,61,30.02,10.0,East,3.5,-,N/A,,Overcast,90,2013-03-06 03:15:00
10:35 PM,37.4,26.6,65,30.02,10.0,East,3.5,-,N/A,,Overcast,100,2013-03-06 03:35:00
10:55 PM,37.4,26.6,65,30.01,10.0,East,4.6,-,N/A,,Overcast,100,2013-03-06 03:55:00
11:15 PM,37.4,26.6,65,30.01,10.0,ESE,5.8,-,N/A,,Overcast,110,2013-03-06 04:15:00
11:55 PM,37.4,24.8,60,30.01,10.0,East,4.6,-,N/A,,Overcast,90,2013-03-06 04:55:00